Terminal Aerodrome Forecast
Issued by NWS Pittsburgh, PA

Current Version | Previous Version | Graphics & Text | Print | Product List | Glossary On
Versions: 1 2 3 4 5 6 7 8 9 10 11 12 13 14 15 16 17 18 19 20 21 22 23 24 25 26 27 28 29
000
FTUS41 KPBZ 032323
TAFPIT
TAF
KPIT 032323Z 0400/0506 VRB03KT P6SM -SHRA BKN050
     FM040200 VRB03KT P6SM SCT050
     FM040700 00000KT 3SM BR BKN250
     FM041400 10003KT P6SM SCT040=

USA.gov is the U.S. government's official web portal to all federal, state and local government web resources and services.